This demonstration page uses our WeatherBlox Daily Observations layout. Learn more.

Left ArrowRight Arrow

Hourly Observations for June 16, 2022

Temp ( °F °C ) Dew Point ( °F °C ) Humidity (%) Winds ( mph kmh ) Pressure ( in mb ) Visibility ( mi km ) Precip ( " mm )
12:15 am 00:15 Cloudy 81 27 72 22 74 74 SSE 10 17 30.08 1019 10 16 0.00 0.00
12:35 am 00:35 Cloudy 81 27 72 22 74 74 SSE 7 11 30.08 1019 10 16 0.00 0.00
12:55 am 00:55 Cloudy 81 27 72 22 74 74 SSE 8 13 30.08 1019 10 16 0.00 0.00
1:15 am 01:15 Cloudy 81 27 72 22 74 74 SSE 9 15 30.08 1019 10 16 0.00 0.00
1:35 am 01:35 Cloudy 79 26 70 21 74 74 SSE 9 15 30.09 1019 10 16 0.00 0.00
1:55 am 01:55 Cloudy 79 26 70 21 74 74 SSE 10 17 30.09 1019 10 16 0.00 0.00
2:15 am 02:15 Cloudy 79 26 68 20 70 70 SSE 7 11 30.09 1019 10 16 0.00 0.00
2:35 am 02:35 Cloudy 79 26 68 20 70 70 SSE 6 9 30.09 1019 10 16 0.00 0.00
2:55 am 02:55 Cloudy 77 25 66 19 69 69 SSE 8 13 30.10 1019 10 16 0.00 0.00
3:15 am 03:15 Cloudy 77 25 66 19 69 69 SSE 8 13 30.10 1019 10 16 0.00 0.00
3:35 am 03:35 Cloudy 77 25 66 19 69 69 SSE 7 11 30.11 1020 10 16 0.00 0.00
3:55 am 03:55 Cloudy 77 25 64 18 65 65 S 10 17 30.10 1019 10 16 0.00 0.00
4:15 am 04:15 Cloudy 77 25 64 18 65 65 S 7 11 30.10 1019 10 16 0.00 0.00
4:35 am 04:35 Cloudy 77 25 64 18 65 65 S 9 15 30.10 1019 10 16 0.00 0.00
4:55 am 04:55 Cloudy 77 25 64 18 65 65 S 9 15 30.10 1019 10 16 0.00 0.00
5:15 am 05:15 Cloudy 77 25 64 18 65 65 S 7 11 30.11 1020 10 16 0.00 0.00
5:35 am 05:35 Cloudy 75 24 64 18 69 69 S 8 13 30.11 1019 10 16 0.00 0.00
5:55 am 05:55 Cloudy 75 24 64 18 69 69 S 7 11 30.11 1019 10 16 0.00 0.00
6:15 am 06:15 Cloudy 75 24 64 18 69 69 S 7 11 30.12 1020 10 16 0.00 0.00
6:35 am 06:35 Cloudy 73 23 64 18 74 74 S 7 11 30.12 1020 10 16 0.00 0.00
6:55 am 06:55 Cloudy 73 23 64 18 74 74 SSW 6 9 30.13 1020 10 16 0.00 0.00
7:15 am 07:15 Cloudy 73 23 64 18 74 74 S 6 9 30.12 1020 10 16 0.00 0.00
7:35 am 07:35 Partly Cloudy 75 24 64 18 69 69 S 7 11 30.12 1020 10 16 0.00 0.00
7:55 am 07:55 Partly Cloudy 75 24 64 18 69 69 S 9 15 30.12 1020 10 16 0.00 0.00
8:15 am 08:15 Partly Cloudy 77 25 64 18 65 65 S 8 13 30.11 1020 10 16 0.00 0.00
8:35 am 08:35 Mostly Cloudy 77 25 64 18 65 65 S 8 13 30.11 1020 10 16 0.00 0.00
8:55 am 08:55 Cloudy 77 25 64 18 65 65 S 12 19 30.11 1020 10 16 0.00 0.00
9:15 am 09:15 Cloudy 77 25 64 18 65 65 S 9 15 30.10 1019 10 16 0.00 0.00
9:35 am 09:35 Cloudy 79 26 66 19 65 65 S 8 13 30.11 1020 10 16 0.00 0.00
9:55 am 09:55 Mostly Cloudy 79 26 68 20 70 70 S 10 17 30.10 1019 10 16 0.00 0.00
10:15 am 10:15 Partly Cloudy 81 27 68 20 66 66 S 10 17 30.10 1019 N/A 0.00 0.00
10:35 am 10:35 Partly Cloudy 81 27 68 20 66 66 S 9 15 30.10 1019 10 16 0.00 0.00
10:55 am 10:55 Partly Cloudy 81 27 70 21 70 70 S 8 13 30.09 1019 10 16 0.00 0.00
11:15 am 11:15 Sunny 81 27 70 21 70 70 S 9 15 30.09 1019 10 16 0.00 0.00
11:35 am 11:35 Sunny 82 28 70 21 66 66 SSE 3 6 30.08 1019 10 16 0.00 0.00
11:55 am 11:55 Sunny 84 29 72 22 66 66 S 9 15 30.08 1019 10 16 0.00 0.00
12:15 pm 12:15 Sunny 86 30 72 22 62 62 S 7 11 30.08 1019 10 16 0.00 0.00
12:35 pm 12:35 Sunny 86 30 72 22 62 62 S 9 15 30.08 1019 10 16 0.00 0.00
12:55 pm 12:55 Sunny 86 30 72 22 62 62 SSE 7 11 30.08 1019 10 16 0.00 0.00
1:15 pm 13:15 Sunny 88 31 72 22 59 59 SE 9 15 30.08 1019 10 16 0.00 0.00
1:35 pm 13:35 Sunny 88 31 72 22 59 59 SSE 10 17 30.06 1018 10 16 0.00 0.00
1:55 pm 13:55 Sunny 88 31 72 22 59 59 S 12 19 30.04 1017 10 16 0.00 0.00
2:15 pm 14:15 Sunny 88 31 73 23 62 62 S 12 19 30.03 1017 10 16 0.00 0.00
2:35 pm 14:35 Sunny 88 31 73 23 62 62 S 13 20 30.04 1017 10 16 0.00 0.00
2:55 pm 14:55 Sunny 90 32 73 23 59 59 SE 9 15 30.02 1016 10 16 0.00 0.00
3:15 pm 15:15 Sunny 90 32 73 23 59 59 SE 14 22 30.00 1016 10 16 0.00 0.00
3:35 pm 15:35 Partly Cloudy with Light Rain 88 31 73 23 62 62 SSE 12 19 30.01 1016 10 16 0.00 0.00
3:55 pm 15:55 Cloudy with Nearby Thunderstorms 84 29 77 25 79 79 SSE 7 11 30.01 1016 7 11 0.00 0.00
4:15 pm 16:15 Cloudy with Strong Thunderstorms 82 28 77 25 84 84 SSE 6 9 30.00 1016 4 6 0.06 1.52
4:35 pm 16:35 Cloudy with Strong Thunderstorms 75 24 72 22 89 89 SSW 20 31 29.99 1015 1 1 0.68 17.27
4:55 pm 16:55 Cloudy with Thunderstorms 73 23 70 21 89 89 SSW 13 20 29.99 1015 5 8 0.99 25.15
5:15 pm 17:15 Cloudy with Thunderstorms 73 23 72 22 94 94 SSW 8 13 29.96 1014 5 8 0.03 0.76
5:35 pm 17:35 Partly Cloudy 73 23 72 22 94 94 SSW 3 6 29.97 1015 10 16 0.03 0.76
5:55 pm 17:55 Sunny with Nearby Thunderstorms 75 24 73 23 94 94 SW 6 9 29.96 1014 10 16 0.03 0.76
6:15 pm 18:15 Sunny 79 26 73 23 84 84 Calm 29.94 1014 10 16 0.00 0.00
6:35 pm 18:35 Sunny 79 26 75 24 89 89 Calm 29.96 1015 10 16 0.00 0.00
6:55 pm 18:55 Sunny 81 27 75 24 84 84 SE 5 7 29.96 1015 10 16 0.00 0.00
7:15 pm 19:15 Sunny 81 27 77 25 89 89 SSE 5 7 29.96 1015 10 16 0.00 0.00
7:35 pm 19:35 Sunny 82 28 77 25 84 84 S 7 11 29.94 1014 10 16 0.00 0.00
7:55 pm 19:55 Sunny 81 27 77 25 89 89 S 7 11 29.95 1014 10 16 0.00 0.00
8:15 pm 20:15 Sunny 81 27 77 25 89 89 S 6 9 29.94 1014 10 16 0.00 0.00
8:35 pm 20:35 Partly Cloudy 81 27 77 25 89 89 S 5 7 29.94 1014 10 16 0.00 0.00
8:55 pm 20:55 Partly Cloudy 79 26 77 25 94 94 SW 5 7 29.94 1014 10 16 0.00 0.00
9:15 pm 21:15 Clear 79 26 77 25 94 94 SSW 8 13 29.91 1013 10 16 0.00 0.00
9:35 pm 21:35 Clear 79 26 75 24 89 89 SSE 6 9 29.90 1013 10 16 0.00 0.00
9:55 pm 21:55 Clear 77 25 73 23 89 89 WSW 3 6 29.94 1014 10 16 0.00 0.00
10:15 pm 22:15 Clear 79 26 73 23 84 84 S 8 13 29.93 1014 10 16 0.00 0.00
10:35 pm 22:35 Clear 79 26 73 23 84 84 SSE 8 13 29.93 1014 10 16 0.00 0.00
10:55 pm 22:55 Clear 77 25 73 23 89 89 S 5 7 29.93 1014 10 16 0.00 0.00
11:15 pm 23:15 Clear 77 25 73 23 89 89 Calm 29.94 1014 10 16 0.00 0.00
11:35 pm 23:35 Clear 77 25 73 23 89 89 ESE 5 7 29.95 1014 10 16 0.00 0.00
11:55 pm 23:55 Clear 75 24 73 23 94 94 ESE 3 6 29.96 1014 10 16 0.00 0.00

Powered by AerisWeather